一网星座-0288星 (ONEWEB-0288 )

导读

ONEWEB-0288是英国OneWeb星座下的低轨通信卫星,于2021年8月21日发射入轨。OneWeb项目旨在通过近地轨道卫星星座,为全球提供高速低延迟的宽带互联网服务,尤其能覆盖地面基础设施难以触及的偏远区域。该卫星运行在约1200公里高度的近地轨道,工作在Ku频段,采用专门设计降低对同步轨道卫星的干扰。作为OneWeb组网的重要组成部分,它帮助推进全球卫星互联网覆盖的建设进程。

Basic Information
目录编号:
49078
目录名称:
ONEWEB-0288
国际标识:
2021-075D
轨道中心:
EARTH
卫星名称:
一网星座-0288星
卫星全名:
一网星座-0288星 (ONEWEB-0288 )
卫星状态:
在轨 (已飞行1757 天)
发射日期:
2021-08-21 UTC
国别 :
英国 (GB)
星等 :
--
Orbit Information
数据来源 国际轨道数据 AOE轨道数据
星历时间 2026-06-12T13:10:47+0800
18小时前
查看轨道信息
2026-06-10T12:00:00+0800
2天前
查看轨道信息
半长轴 7591.863km 7591.869km
偏心率 0.0002021 0.0002295
轨道倾角 87.895° 87.895°
近地点辐角 92.608° 92.241°
升交点赤经 351.644° 352.053°
平近点角 267.527° 311.589°
近地点 1212.191km 1211.989km
远地点 1215.261km 1215.475km
周期 109.719分钟 109.719分钟
每日圈数 13.124424 13.124409
Detailed Information
平衡模式:
三轴稳定
覆盖范围:
全球
运营商:
一网卫星公司
运营商所在国:
英国
制造商(研发单位):
一网卫星公司
制造商所在国:
英国
使用方式:
暂无
Satellite Introduction
OneWeb卫星网络由648颗重约125公斤的微型卫星组成,运行在1200公里的轨道上。 每颗卫星都能够提供至少每秒8千兆位的吞吐量,以使用其高吞吐量的Ku频段有效载荷为家庭和移动平台提供互联网接入。该卫星仍在工作。
2D Orbit Map
3D Orbit Map
Orbit Altitude Analysis Chart
Orbit Inclination Analysis Chart
Orbit Comprehensive Analysis Chart
View Comprehensive Chart